This is the latest recevied weather packets stored in our database for station/object KF7PIZ. If no packets are shown the sender has not sent any weather packets the latest 10 day(s).
| Time | Temp. | Humidity | Pressure | Rain* | Wind** | Luminosity | Snow |
|---|---|---|---|---|---|---|---|
| 1777643796 | 5.56° C | 75% | 1020.6 hPa | 0 mm | - | 40 W/m² | - |
| 1777643493 | 4.44° C | 77% | 1020.7 hPa | 0 mm | - | 40 W/m² | - |
| 1777643190 | 3.33° C | 76% | 1020.5 hPa | 0 mm | - | 26 W/m² | - |
| 1777642886 | 2.78° C | 79% | 1020.6 hPa | 0 mm | - | 23 W/m² | - |
| 1777642583 | 2.78° C | 78% | 1020.5 hPa | 0 mm | - | 13 W/m² | - |
| 1777642279 | 2.78° C | 79% | 1020.2 hPa | 0 mm | - | 10 W/m² | - |
| 1777641977 | 2.78° C | 77% | 1020.3 hPa | 0 mm | - | 8 W/m² | - |
| 1777641672 | 2.78° C | 78% | 1020.2 hPa | 0 mm | - | 6 W/m² | - |
| 1777641368 | 2.78° C | 79% | 1020.2 hPa | 0 mm | - | 5 W/m² | - |
| 1777641063 | 2.22° C | 79% | 1020.2 hPa | 0 mm | - | 3 W/m² | - |
| 1777640759 | 2.78° C | 79% | 1020.4 hPa | 0 mm | - | 2 W/m² | - |
| 1777640456 | 2.78° C | 80% | 1020.2 hPa | 0 mm | - | 0 W/m² | - |
| 1777640153 | 2.78° C | 80% | 1020.2 hPa | 0 mm | - | 0 W/m² | - |
| 1777639850 | 2.78° C | 78% | 1020.2 hPa | 0 mm | - | 0 W/m² | - |
| 1777639548 | 2.78° C | 78% | 1019.8 hPa | 0 mm | - | 0 W/m² | - |
| 1777639244 | 2.78° C | 78% | 1019.7 hPa | 0 mm | - | 0 W/m² | - |
| 1777638940 | 2.78° C | 77% | 1020.1 hPa | 0 mm | - | 0 W/m² | - |
| 1777638636 | 2.78° C | 78% | 1019.7 hPa | 0 mm | - | 0 W/m² | - |
| 1777638333 | 2.78° C | 78% | 1019.8 hPa | 0 mm | - | 0 W/m² | - |
| 1777638028 | 2.78° C | 77% | 1019.9 hPa | 0 mm | - | 0 W/m² | - |
| 1777637725 | 2.78° C | 77% | 1019.9 hPa | 0 mm | - | 0 W/m² | - |
| 1777637422 | 2.78° C | 76% | 1019.8 hPa | 0 mm | - | 0 W/m² | - |
| 1777637120 | 2.78° C | 74% | 1019.8 hPa | 0 mm | - | 0 W/m² | - |
| 1777636815 | 3.33° C | 73% | 1019.5 hPa | 0 mm | - | 0 W/m² | - |
| 1777636512 | 3.33° C | 72% | 1019.8 hPa | 0 mm | - | 0 W/m² | - |
* Rain latest hour (hover to see other rain measurements)
** Current wind speed in m/s (hover to see current wind gust speed)